[[{"header":{"parameterUnit":"m.s-1","parameterCategory":1,"la1":30.2992,"la2":30.254,"lo1":-89.0895,"lo2":-89.0443,"dy":0.0025,"dx":0.0025,"nx":19,"ny":19,"refTime":"2026-04-24T09:00:00:Z","depth":0,"parameterNumber":2,"parameterNumberName":"U-component_of_WINDS"},"data":[0,0,0,0.3645,0.3646,0.3689,0.3689,0.3738,0.3739,0,0,0,0,0,0,0,0,0,0,0,0.363,0.363,0.3645,0.3646,0.3689,0.3689,0.3738,0.3739,0,0,0,0,0,0,0,0,0,0,0,0.363,0.363,0.363,0.3646,0.3689,0.3689,0.3738,0.3708,0,0,0,0,0,0,0,0,0,0,0.3667,0.365,0.363,0.363,0.3647,0.3689,0.3689,0.3706,0.371,0.3717,0,0.3723,0,0.3731,0.3742,0.3742,0,0,0,0.3648,0.3648,0.3662,0.363,0.3647,0.3689,0.367,0.3708,0.3712,0.3721,0.3724,0.3726,0.3732,0.3742,0.3742,0.3777,0.3777,0,0,0.3646,0.3636,0.3659,0.3664,0.3658,0.3669,0.3671,0.371,0.3713,0.3724,0.3727,0.3733,0.3742,0.3743,0.3777,0.3777,0,0,0,0.3638,0.3634,0.3647,0.3662,0.367,0.367,0.3673,0.3711,0.3716,0.3727,0.3734,0.3742,0.3743,0.3777,0.3777,0.3771,0,0,0,0.3636,0.363,0.3646,0.3641,0.3669,0.3691,0.3672,0.3713,0.3718,0.3733,0.3743,0.3743,0.3777,0.3777,0.3771,0.377,0,0,0,0.3628,0.3629,0.3634,0.364,0.3658,0.3691,0.3698,0.3714,0.3722,0.3742,0.3744,0.3777,0.3777,0.3771,0.377,0.3776,0,0,0,0.3616,0.3629,0.3634,0.365,0.3658,0.3687,0.3698,0.372,0.3736,0.3743,0.3777,0.3777,0.3771,0.377,0.3776,0.378,0.3781,0,0,0.3627,0.363,0.364,0.3646,0.3671,0.3681,0.3705,0.373,0.374,0.3764,0.3765,0.3771,0.377,0.3776,0.3787,0.3787,0,0,0,0.364,0.3647,0.3656,0.3671,0.369,0.3705,0.3727,0.3735,0.3756,0.3751,0.3775,0.3775,0.3779,0.3781,0.3781,0.3785,0.3778,0.3777,0.3777,0.3641,0.3654,0.3671,0.3688,0.3703,0.3724,0.3736,0.3752,0.376,0.3766,0.3773,0.3778,0.378,0.378,0.3784,0.3776,0.3776,0.3776,0.3776,0.3658,0.367,0.368,0.37,0.3713,0.373,0.375,0.3755,0.3772,0.3774,0.3778,0.3778,0.378,0.3784,0.3775,0.3775,0.3775,0.3776,0.3776,0.366,0.3668,0.3678,0.3701,0.3716,0.3732,0.3748,0.3759,0.3769,0.3773,0.3782,0.3782,0.3783,0.3776,0.3776,0.3776,0.3776,0.3776,0.3776,0.3659,0.3671,0.3683,0.3703,0.3713,0.3728,0.3748,0.3758,0.3772,0.3779,0.3779,0.3787,0.3778,0.3776,0.3777,0.3777,0.3777,0.3777,0.3777,0.3672,0.3671,0.369,0.37,0.3723,0.3737,0.375,0.377,0.3779,0.3787,0.3793,0.3785,0.3789,0.3788,0.3787,0.379,0.379,0.379,0.379,0.3674,0.3677,0.3698,0.3714,0.373,0.3743,0.3763,0.3778,0.3793,0.3799,0.38,0.3799,0.3798,0.3802,0.3802,0.38,0.3807,0.3807,0.3807,0.3683,0.3687,0.3703,0.3718,0.3736,0.3751,0.3769,0.3786,0.3803,0.3808,0.3805,0.3804,0.3801,0.38,0.3807,0.3806,0.3803,0,0]},{"header":{"parameterUnit":"m.s-1","parameterCategory":1,"la1":30.2992,"la2":30.254,"lo1":-89.0895,"lo2":-89.0443,"dy":0.0025,"dx":0.0025,"nx":19,"ny":19,"refTime":"2026-04-24T09:00:00:Z","depth":0,"parameterNumber":3,"parameterNumberName":"V-component_of_WINDS"},"data":[0,0,0,4.1661,4.1663,4.1756,4.1757,4.1868,4.1868,0,0,0,0,0,0,0,0,0,0,0,4.163,4.163,4.1661,4.1663,4.1756,4.1757,4.1867,4.1868,0,0,0,0,0,0,0,0,0,0,0,4.1629,4.163,4.1631,4.1664,4.1756,4.1757,4.1867,4.18,0,0,0,0,0,0,0,0,0,0,4.1711,4.1678,4.163,4.1631,4.1664,4.1756,4.1757,4.1797,4.1804,4.1822,0,4.1838,0,4.1855,4.1875,4.1876,0,0,0,4.1666,4.1672,4.17,4.1631,4.1665,4.1756,4.1715,4.1801,4.1809,4.1832,4.184,4.1844,4.1857,4.1876,4.1877,4.1977,4.1978,0,0,4.1661,4.1644,4.1695,4.1706,4.1692,4.1712,4.1718,4.1806,4.1813,4.184,4.1847,4.1859,4.1877,4.1878,4.1977,4.1978,0,0,0,4.1644,4.164,4.1667,4.1701,4.1718,4.1715,4.1721,4.1809,4.1819,4.1848,4.186,4.1877,4.1879,4.1977,4.1977,4.1979,0,0,0,4.1641,4.1631,4.1665,4.1655,4.1717,4.1765,4.1723,4.1813,4.1824,4.186,4.1877,4.188,4.1976,4.1977,4.1979,4.1983,0,0,0,4.1625,4.1629,4.1641,4.1654,4.1694,4.1764,4.1779,4.1816,4.1831,4.1876,4.188,4.1976,4.1977,4.1978,4.1982,4.2006,0,0,0,4.1602,4.164,4.1641,4.1687,4.1693,4.1765,4.1779,4.1833,4.1872,4.1878,4.1977,4.1977,4.1978,4.1981,4.2005,4.2024,4.203,0,0,4.164,4.1644,4.1673,4.1676,4.1744,4.1752,4.182,4.187,4.1889,4.1947,4.1949,4.1979,4.1982,4.2006,4.2068,4.2073,0,0,0,4.1679,4.17,4.1721,4.1758,4.1799,4.1834,4.1876,4.1895,4.1946,4.1915,4.1994,4.1996,4.2011,4.2021,4.2025,4.2039,4.1981,4.1981,4.1981,4.1708,4.1732,4.1782,4.1817,4.1853,4.1897,4.1928,4.1961,4.1973,4.1991,4.2009,4.2044,4.2055,4.2058,4.2073,4.202,4.202,4.202,4.202,4.1767,4.1801,4.1818,4.1872,4.1897,4.1943,4.1987,4.1994,4.204,4.2032,4.2046,4.2036,4.2062,4.2076,4.202,4.202,4.202,4.202,4.202,4.179,4.1811,4.1834,4.1891,4.1932,4.1966,4.201,4.203,4.205,4.2064,4.2085,4.2085,4.2089,4.2072,4.2072,4.2073,4.2073,4.2073,4.2073,4.1805,4.1832,4.1867,4.1915,4.1942,4.198,4.2026,4.2053,4.2088,4.2099,4.2099,4.211,4.206,4.2048,4.2075,4.2075,4.2074,4.2074,4.2074,4.1858,4.185,4.1905,4.1932,4.1991,4.2031,4.2056,4.211,4.2135,4.2156,4.2165,4.2124,4.2129,4.2126,4.2116,4.2159,4.2159,4.2159,4.2159,4.1879,4.1883,4.1945,4.1988,4.2032,4.2061,4.2123,4.2159,4.2194,4.2211,4.2207,4.2196,4.2192,4.2199,4.2194,4.2185,4.2245,4.2245,4.2245,4.1914,4.1924,4.1973,4.2009,4.2056,4.2096,4.2155,4.2203,4.2241,4.2249,4.2225,4.2222,4.2203,4.2195,4.2204,4.2196,4.218,0,0]}]]